Weather reports worldwide

Advertisment
Piarco Int. Airport, Trinidad / Tobago (78970): temperature & dewpoint: 13.01.2019 05:00:00 - 19.01.2019 05:00:00 (AST)Piarco Int. Airport, Trinidad / Tobago (78970): wind speed: 13.01.2019 05:00:00 - 19.01.2019 05:00:00 (AST)Piarco Int. Airport, Trinidad / Tobago (78970): wind direction: 13.01.2019 05:00:00 - 19.01.2019 05:00:00 (AST)Piarco Int. Airport, Trinidad / Tobago (78970): reduced air pressure: 13.01.2019 05:00:00 - 19.01.2019 05:00:00 (AST)Piarco Int. Airport, Trinidad / Tobago (78970): visibility: 13.01.2019 05:00:00 - 19.01.2019 05:00:00 (AST)
Date & Time tt [°C] td [°C] ff [km/h] ff [kn] dd ppp [hPa] vv [km]
19.01.2019 05:00:00 21,0 20,0 0 0 N - 10
19.01.2019 04:00:00 22,0 21,0 0 0 N - 10
19.01.2019 03:00:00 23,0 21,0 0 0 N - 10
19.01.2019 02:00:00 22,9 21,0 0 0 N 1014,4 18
19.01.2019 01:00:00 23,0 21,0 0 0 N - 10
19.01.2019 00:00:00 24,0 21,0 0 0 N - 10
18.01.2019 23:00:00 23,4 21,3 5 3 SE 1015,4 10
18.01.2019 22:00:00 24,0 21,0 5 3 E - 10
18.01.2019 21:00:00 25,0 21,0 8 4 ESE - 10
18.01.2019 20:00:00 25,5 21,0 11 6 E 1014,7 18
18.01.2019 19:00:00 26,0 21,0 13 7 E - 10
18.01.2019 18:00:00 27,0 21,0 21 11 ESE - 10
18.01.2019 17:00:00 28,5 20,7 21 11 ESE 1013,8 18
18.01.2019 16:00:00 29,0 21,0 26 14 ESE - 10
18.01.2019 15:00:00 30,0 20,0 22 12 ESE - 10
18.01.2019 14:00:00 29,8 20,0 22 12 ESE 1014,3 20
18.01.2019 13:00:00 31,0 19,0 22 12 ESE - 10
18.01.2019 12:00:00 31,0 20,0 21 11 ESE - 10
18.01.2019 11:00:00 30,0 20,8 22 12 ESE 1016,6 20
18.01.2019 10:00:00 29,0 21,0 21 11 ESE - 10
18.01.2019 09:00:00 27,0 22,0 13 7 E - 10
18.01.2019 08:00:00 25,7 22,0 5 3 E 1016,0 16
18.01.2019 07:00:00 24,0 22,0 0 0 N - 10
18.01.2019 06:00:00 23,0 22,0 0 0 N - 10
18.01.2019 05:00:00 23,2 21,4 0 0 N 1014,2 15
18.01.2019 04:00:00 24,0 22,0 5 3 E - 10
18.01.2019 03:00:00 24,0 22,0 11 6 E - 10
18.01.2019 02:00:00 23,8 22,0 8 4 ESE 1014,8 20
18.01.2019 01:00:00 24,0 22,0 8 4 SE - 10
18.01.2019 00:00:00 25,0 22,0 9 5 ESE - 10
17.01.2019 23:00:00 24,0 22,9 9 5 E 1015,9 20
17.01.2019 22:00:00 25,0 23,0 9 5 ESE - 10
17.01.2019 21:00:00 26,0 22,0 9 5 E - 10
17.01.2019 20:00:00 25,6 22,4 9 5 ESE 1015,5 16
17.01.2019 19:00:00 26,0 23,0 9 5 ESE - 10
17.01.2019 18:00:00 27,0 23,0 15 8 E - 10
17.01.2019 17:00:00 28,5 22,4 18 10 E 1014,3 18
17.01.2019 16:00:00 30,0 22,0 21 11 ESE - 10
17.01.2019 15:00:00 29,0 22,0 22 12 ESE - 10
17.01.2019 14:00:00 29,4 21,3 22 12 E 1015,1 18
17.01.2019 13:00:00 29,0 21,0 18 10 ESE - 10
17.01.2019 12:00:00 29,0 21,0 22 12 ESE - 10
17.01.2019 11:00:00 27,9 22,9 18 10 ESE 1017,7 16
17.01.2019 10:00:00 26,0 23,0 16 9 E - 10
17.01.2019 09:00:00 24,0 23,0 21 11 ESE - 2,0
17.01.2019 08:00:00 24,0 22,6 16 9 ENE 1017,1 8
17.01.2019 07:00:00 24,0 23,0 9 5 E - 6
17.01.2019 06:00:00 24,0 23,0 5 3 E - 10
17.01.2019 05:00:00 23,6 22,6 11 6 SE 1015,0 12
17.01.2019 04:00:00 25,0 22,0 5 3 ESE - 10
17.01.2019 03:00:00 24,0 21,0 0 0 N - 10
17.01.2019 02:00:00 24,3 21,4 8 4 E 1014,9 25
17.01.2019 01:00:00 24,0 22,0 9 5 E - 10
17.01.2019 00:00:00 25,0 22,0 5 3 ESE - 10
16.01.2019 23:00:00 24,6 21,8 9 5 E 1016,3 25
16.01.2019 22:00:00 25,0 22,0 9 5 E - 10
16.01.2019 21:00:00 25,0 22,0 8 4 E - 10
16.01.2019 20:00:00 25,4 21,8 13 7 E 1015,4 10
16.01.2019 19:00:00 26,0 22,0 15 8 E - 10
16.01.2019 18:00:00 27,0 22,0 18 10 E - 10
16.01.2019 17:00:00 28,9 21,4 18 10 E 1014,3 5
16.01.2019 16:00:00 29,0 22,0 26 14 E - 10
16.01.2019 15:00:00 30,0 21,0 22 12 E - 10
16.01.2019 14:00:00 29,6 20,4 34 18 E 1014,6 18
16.01.2019 13:00:00 30,0 21,0 29 16 E - 10
16.01.2019 12:00:00 30,0 22,0 26 14 ESE - 10
16.01.2019 11:00:00 29,5 22,2 22 12 E 1017,0 18
16.01.2019 10:00:00 28,0 22,0 28 15 E - 10
16.01.2019 09:00:00 27,0 23,0 18 10 E - 10
16.01.2019 08:00:00 24,9 22,8 18 10 E 1016,6 18
16.01.2019 07:00:00 24,0 22,0 9 5 E - 10
16.01.2019 06:00:00 24,0 22,0 0 0 N - 10
16.01.2019 05:00:00 23,9 22,0 0 0 N 1014,7 20
16.01.2019 04:00:00 23,0 22,0 0 0 N - 10
16.01.2019 03:00:00 24,0 22,0 4 2 E - 10
16.01.2019 02:00:00 24,4 21,9 15 8 ESE 1014,6 6
16.01.2019 01:00:00 24,0 22,0 4 2 E - 10
16.01.2019 00:00:00 24,0 22,0 0 0 N - 10
15.01.2019 23:00:00 24,3 21,9 0 0 N 1015,7 14
15.01.2019 22:00:00 25,0 22,0 0 0 N - 10
15.01.2019 21:00:00 25,0 22,0 0 0 N - 10
15.01.2019 20:00:00 25,5 21,6 0 0 N 1015,5 16
15.01.2019 19:00:00 26,0 22,0 9 5 E - 10
15.01.2019 18:00:00 27,0 22,0 16 9 E - 10
15.01.2019 17:00:00 28,0 21,3 16 9 ESE 1013,8 15
15.01.2019 16:00:00 30,0 21,0 18 10 ESE - 10
15.01.2019 15:00:00 31,0 21,0 18 10 ESE - 10
15.01.2019 14:00:00 29,7 20,2 24 13 ESE 1013,8 20
15.01.2019 13:00:00 30,0 20,0 26 14 E - 10
15.01.2019 12:00:00 30,0 21,0 24 13 E - 10
15.01.2019 11:00:00 29,6 20,8 22 12 ESE 1016,1 20
15.01.2019 10:00:00 30,0 21,0 18 10 ESE - 10
15.01.2019 09:00:00 28,0 22,0 21 11 ESE - 10
15.01.2019 08:00:00 24,3 21,1 0 0 N 1016,0 20
15.01.2019 07:00:00 21,0 20,0 0 0 N - 10
15.01.2019 06:00:00 21,0 20,0 0 0 N - 10
15.01.2019 05:00:00 20,8 19,5 0 0 N 1014,0 20
15.01.2019 04:00:00 21,0 20,0 0 0 N - 10
15.01.2019 03:00:00 21,0 19,0 0 0 N - 10
15.01.2019 02:00:00 21,5 19,9 0 0 N 1014,6 20
15.01.2019 01:00:00 22,0 20,0 0 0 N - 10
15.01.2019 00:00:00 23,0 20,0 0 0 N - 10
14.01.2019 23:00:00 22,8 19,8 0 0 N 1015,2 20
14.01.2019 22:00:00 23,0 20,0 0 0 N - 10
14.01.2019 21:00:00 25,0 21,0 0 0 N - 10
14.01.2019 20:00:00 25,0 20,3 0 0 N 1015,1 18
14.01.2019 19:00:00 25,0 21,0 5 3 E - 10
14.01.2019 18:00:00 26,0 20,0 8 4 ESE - 10
14.01.2019 17:00:00 28,4 19,2 21 11 ESE 1013,9 10
14.01.2019 16:00:00 29,0 18,0 18 10 E - 10
14.01.2019 15:00:00 30,0 18,0 21 11 ESE - 10
14.01.2019 14:00:00 29,9 18,1 15 8 SE 1013,7 18
14.01.2019 13:00:00 30,0 18,0 18 10 ESE - 10
14.01.2019 12:00:00 30,0 19,0 15 8 SE - 10
14.01.2019 11:00:00 29,1 19,0 15 8 E 1016,4 25
14.01.2019 10:00:00 27,0 21,0 15 8 SE - 10
14.01.2019 09:00:00 27,0 21,0 11 6 E - 10
14.01.2019 08:00:00 23,4 19,9 0 0 N 1016,5 16
14.01.2019 07:00:00 20,0 19,0 0 0 N - 10
14.01.2019 06:00:00 19,0 18,0 0 0 N - 10
14.01.2019 05:00:00 19,6 18,6 0 0 N 1015,0 18
14.01.2019 04:00:00 20,0 19,0 0 0 N - 10
14.01.2019 03:00:00 20,0 18,0 0 0 N - 10
14.01.2019 02:00:00 29,2 18,1 0 0 N 1015,0 18
14.01.2019 01:00:00 20,0 19,0 0 0 N - 10
14.01.2019 00:00:00 21,0 19,0 0 0 N - 10
13.01.2019 23:00:00 22,2 19,5 0 0 N 1016,1 18
13.01.2019 22:00:00 23,0 19,0 0 0 N - 10
13.01.2019 21:00:00 24,0 19,0 0 0 N - 10
13.01.2019 20:00:00 24,2 18,4 5 3 ENE 1015,3 18
13.01.2019 19:00:00 25,0 20,0 8 4 E - 10
13.01.2019 18:00:00 27,0 20,0 9 5 E - 10
13.01.2019 17:00:00 28,0 19,6 18 10 E 1014,0 20
13.01.2019 16:00:00 29,0 19,0 18 10 ESE - 10
13.01.2019 15:00:00 30,0 19,0 15 8 ESE - 10
13.01.2019 14:00:00 29,5 19,3 16 9 ESE 1014,2 10
13.01.2019 13:00:00 30,0 19,0 24 13 ESE - 10
13.01.2019 12:00:00 30,0 18,0 21 11 ESE - 10
13.01.2019 11:00:00 29,3 19,2 18 10 ESE 1016,2 18
13.01.2019 10:00:00 28,0 20,0 18 10 E - 10
13.01.2019 09:00:00 27,0 20,0 9 5 ESE - 10
13.01.2019 08:00:00 23,5 20,5 0 0 N 1016,0 14
13.01.2019 07:00:00 21,0 19,0 0 0 N - 10
13.01.2019 06:00:00 20,0 20,0 0 0 N - 10
13.01.2019 05:00:00 21,5 19,9 0 0 N 1014,2 14

tt = temperature
td = dewpoint
ff = wind speed
dd = wind direction
ppp = reduced air pressure
vv = visibility

Next stations